ATLAS AGENA B DEB, 631

Orbit data source: Space-Track

ATLAS AGENA B DEB, 631 is space debris in LEO originally from a launch on Fri, 19 Jul 1963 UTC launched from the Air Force Western Test Range (AFWTR). Debris objects in space refer to the collection of defunct objects orbiting the Earth. Examples of debris include non-operational satellites, rocket bodies, and fragments generated from explosions, collisions, or faulty payload assembly.

Loading next visibility...
Identifier
631, 1963-030E
Orbit
LEO
Last TLE update
1 day ago
Origin
Manufacturer
Unknown
Mission
Spacecraft
Bus & Motor
Unknown
Mass
~10 kg wet, ~10 kg dry
Launch date (UTC)
1963-07-19 (62 years ago)
Launch vehicle
Unknown
Launch site
Air Force Western Test Range (AFWTR)
Object type
Payload
Rocket body
Debris
Shape & HBR
Box, 1.5 m
Radar Cross Section
1.575 m², Medium (>0.1 m² and < 1m²)

Expand to show TLE details & history

TLE from 1 day ago
0 ATLAS AGENA B DEB
1 00631U 63030E   25189.05500851  .00000003  00000-0  00000-0 0  9994
2 00631  88.4064 236.1502 0167670  66.5632 295.2748  8.55877434936192
Epoch: 2025-07-08T01:19Z
TLE epoch observation values (Epoch: 2025-07-08T01:19:12.735Z)
Latitude
-0.00004°
Longitude
-69.90836°
Altitude
3,649.597 km
Speed
6.327 km/s
True Right ascension
15h 44m 36s
True Declination
0° 00' 00"
Sunlit
Object was in daylight at epoch
Visualization orbit readout
Latitude
77.79275°
Longitude
-62.6286°
Altitude
3,565.292 km
Speed
6.389 km/s
Apparent Right ascension
12h 59m 34s
Apparent Declination
43° 00' 12"
Sunlit
Object is in daylight
Visualization observer readout
Local Sidereal Time
23:44:22
Azimuth
346.306° N
Elevation
-5.355°
Doppler factor
1
Orbital elements
Apogee altitude
3,884.418 km
Perigee altitude
3,545.949 km
Semi-major axis
10,093.321 km
Eccentricity
0.01677
Inclination
88.4064°
RAAN
236.1502°
Arg. of periapsis
66.5632°
True anomaly
Unknown
Mean anomaly
295.2748°
Eccentric anomaly
Unknown
Mean motion
2.14039 °/min
Orbital period
168.19 mins
BSTAR
0
Loading maneuver chart data...
Loading SW <> Apogee altitude chart data...
Loading historical data...
Loading historical data...
Loading historical data...
Loading historical data...
Loading historical data...
Loading historical data...
Loading historical data...

ATLAS AGENA B DEB Visibility forecast

Observer location: undefined°, undefined°

Span
Click to sort rows by Start time (UTC) header in descending order
Start Az.
Max El. time (UTC)
Max El. Az.
Max El.
End time (UTC)
End Az.
17 mins2025-07-09 11:48:11.464Z22.895° NE2025-07-09 11:57:11.464Z53.943° ENE14.148°2025-07-09 12:05:11.464Z81.151° E
36 mins2025-07-09 14:34:11.464Z3.312° NNE2025-07-09 14:51:11.464Z91.97° ESE43.35°2025-07-09 15:10:11.464Z171.135° S
28 mins2025-07-09 17:23:11.464Z346.404° N2025-07-09 17:36:11.464Z296.269° NW29.023°2025-07-09 17:51:11.464Z239.965° WSW
27 mins2025-07-10 01:08:11.464Z115.23° SE2025-07-10 01:21:11.464Z65.433° ENE27.273°2025-07-10 01:35:11.464Z12.185° NNE
36 mins2025-07-10 03:49:11.464Z187.089° SSW2025-07-10 04:07:11.464Z280.01° WNW43.849°2025-07-10 04:25:11.464Z358.95° N
17 mins2025-07-10 06:52:11.464Z276.594° WNW2025-07-10 07:00:11.464Z305.026° NW14.966°2025-07-10 07:09:11.464Z337.011° NNW
|